Terminal Aerodrome Forecast
Issued by NWS

Home | Current Version | Previous Version | Text Only | Print | Product List | Glossary On
Versions: 1 2 3 4 5 6 7 8 9 10 11 12 13 14 15 16 17 18 19 20 21 22 23 24 25 26 27 28 29 30 31 32 33 34 35 36 37 38 39 40 41
000
FTUS46 KEKA 040944 CCA
TAFCEC
TAF COR
KCEC 040944Z 0408/0506 00000KT P6SM OVC010
     FM041200 13003KT 4SM BR OVC006
     FM041300 VRB04KT 2SM BR OVC002
     FM041600 27006KT P6SM OVC008
     FM042200 34007KT P6SM OVC010=

USA.gov is the U.S. government's official web portal to all federal, state and local government web resources and services.